Regional Weather Roundup
Issued by NWS

Home | Current Version | Previous Version | Text Only | Print | Product List | Glossary Off
Versions: 1 2 3 4 5 6 7 8 9 10 11 12 13 14 15 16 17 18 19 20 21 22 23 24 25 26 27

000
ASUS45 KTFX 031910
RWRMT
MONTANA REGIONAL WEATHER ROUNDUP
NATIONAL WEATHER SERVICE GREAT FALLS MT
100 PM MDT TUE MAY 03 2016

NOTE: "FAIR" INDICATES FEW OR NO CLOUDS BELOW 12000 FEET WITH NO
SIGNIFICANT WEATHER AND/OR OBSTRUCTIONS TO VISIBILITY.

MTZ001>007-043-032000-
WEST OF THE DIVIDE

CITY           SKY/WX    TMP DP  RH WIND       PRES   REMARKS
KALISPELL      SUNNY     70  40  33 S6        30.12F
MISSOULA       SUNNY     68  37  32 CALM      30.15F
BUTTE          SUNNY     68  14  12 CALM      30.21F
MULLAN PASS    SUNNY     63  30  28 CALM      30.23F
$$

MTZ008-052>055-032000-
SOUTHWEST MONTANA

CITY           SKY/WX    TMP DP  RH WIND       PRES   REMARKS
BOZEMAN        SUNNY     71  34  25 N5        30.19F
DILLON         SUNNY     68  24  19 VRB3      30.20F
ENNIS          SUNNY     68  27  21 VRB3      30.26F
$$

MTZ009-010-012-014-046-048-049-054-032000-
EAST SLOPES AND CENTRAL MONTANA

CITY           SKY/WX    TMP DP  RH WIND       PRES   REMARKS
CUT BANK       SUNNY     74  28  18 VRB3      30.10F
GREAT FALLS    SUNNY     74  33  22 W3        30.11F
MALMSTROM AFB  SUNNY     73  37  26 S2G13     30.11F
HELENA         SUNNY     72  34  24 E6        30.16F
$$

MTZ011-013-016-021-045-047-050-051-032000-
NORTH CENTRAL MONTANA

CITY           SKY/WX    TMP DP  RH WIND       PRES   REMARKS
HAVRE          SUNNY     75  44  33 E3        30.08F
LEWISTOWN      SUNNY     74  30  19 CALM      30.14F
N BAR RANCH      N/A     70  32  24 SE8       30.18S
$$

MTZ017>020-022>027-061-062-032000-
NORTHEAST MONTANA

CITY           SKY/WX    TMP DP  RH WIND       PRES   REMARKS
GLASGOW        SUNNY     77  39  25 MISG      30.08F
JORDAN           N/A     76  39  26 N8        30.10S
SIDNEY         SUNNY     75  37  25 N9        30.07F
WOLF POINT     SUNNY     78  38  23 E5        30.07F
$$

MTZ028>42-056>058-032000-
SOUTHCENTRAL AND SOUTHEAST MONTANA

CITY           SKY/WX    TMP DP  RH WIND       PRES   REMARKS
BAKER          SUNNY     73  31  21 VRB3      30.10F
BILLINGS       MOSUNNY   70  34  26 CALM      30.16F
LIVINGSTON     SUNNY     72  31  22 VRB3      30.16F
MILES CITY     SUNNY     75  39  27 NW6       30.10F
$$

REGIONAL REPORTS...DAKOTAS

CITY           SKY/WX    TMP DP  RH WIND       PRES   REMARKS
WILLISTON      SUNNY     80  38  22 N15G23    30.05F
MINOT          SUNNY     77  31  18 NW20G28   30.01S
DICKINSON      SUNNY     74  35  24 N14G22    30.03F
BEACH            N/A     72  32  23 N7        30.12S
CROSBY           N/A     75  36  23 N10G16    30.06F
TIOGA            N/A     75  36  23 N17G24    30.09F
WATFORD CITY     N/A     75  36  23 NW12G21   30.05F
BISMARCK       SUNNY     77  39  25 N20G28    29.97F
GRAND FORKS    MOSUNNY   67  31  26 N24G38    29.88S
FARGO          SUNNY     72  28  19 N26G37    29.84S
BUFFALO SD       N/A     73  33  23 N14G23    30.02F
RAPID CITY     SUNNY     69  37  30 N20G25    30.09F
$$

REGIONAL REPORTS...WYOMING/IDAHO/WASHINGTON

CITY           SKY/WX    TMP DP  RH WIND       PRES   REMARKS
GILLETTE       SUNNY     67  39  35 NW15G22   30.17F
SHERIDAN       SUNNY     72  38  29 E6        30.17F
BUFFALO WY     SUNNY     67  33  28 E5        30.20
CODY           SUNNY     68  30  24 N5        30.19F
YELLOWSTONE LA   N/A     50  15  24 SE6       30.36
IDAHO FALLS    SUNNY     68  31  25 MISG      30.25F
SALMON         SUNNY     64  30  27 N5        30.16F
BOISE          SUNNY     76  29  17 SE8G23    30.12F
SPOKANE        MOSUNNY   77  43  29 MISG      30.07F
$$

REGIONAL REPORTS...ALBERTA

CITY           SKY/WX    TMP DP  RH WIND       PRES   REMARKS
EDMONTON       MOSUNNY   81  37  21 SW6       29.92F
CALGARY        MOSUNNY   77  28  16 VRB5      30.03F
LETHBRIDGE     SUNNY     81  25  12 SW16G23   30.02F
MEDICINE HAT   MOSUNNY   81  41  24 SE8       30.02F
WATERTON GATE    N/A     73  28  19 SW15G22     N/A
MILK RIVER       N/A     77  34  20 W5          N/A
$$

REGIONAL REPORTS...SASKATCHEWAN

CITY           SKY/WX    TMP DP  RH WIND       PRES   REMARKS
SWIFT CURRENT  SUNNY     77  36  22 VRB3      30.06F
REGINA         MOSUNNY   77  37  24 VRB2      30.04F
SASKATOON      MOSUNNY   82  39  21 W9        30.02F
CYPRESS HILLS    N/A     72  34  25 S8          N/A
VAL MARIE        N/A     75  32  20 SW3         N/A
ROCKGLEN         N/A     75  36  23 N5          N/A
ASSINIBOIA       N/A     86  32  14 S14G20      N/A
$$




USA.gov is the U.S. government's official web portal to all federal, state and local government web resources and services.